Showing default

FLOCK 4BE 10, 60503

Orbit data source: Space-Track

FLOCK 4BE 10, 60503 is a payload satellite owned by Planet (US) in SSO that was launched on Fri, 16 Aug 2024 UTC via an FALCON 9 launch vehicle from the Air Force Western Test Range (AFWTR). Payloads include a variety of satellites, spacecraft, and rockets equipped with specific instruments for various scientific and technological missions. These include communications satellites like Starlink; space stations such as the ISS; scientific satellites like the Hubble; Earth observation satellites from companies like Planet Labs, Umbra, and HawkEye 360; GPS; miniature CubeSats for education and research; and military/defense satellites.

Loading next visibility...
FLOCK 4BE 10 details
Identifier
60503, 2024-149AM
Orbit
SSO
Last TLE update6 hours ago
Origin
Flag of USPlanet (US)
ManufacturerPlanet
MissionOperational spacecraft
Bus & MotorCUBESAT 3U, Unknown motor
Mass5.7 kg wet, 5.7 kg dry
Launch date (UTC)
2024-08-16 (4 months ago)
Launch vehicle
FALCON 9
Launch site
Air Force Western Test Range (AFWTR)
Object type
Payload
Rocket body
Debris
Shape & HBRUnknown
Radar Cross SectionMedium (>0.1 m² and <1 m²)

Expand to show TLE details & history

TLE from 6 hours ago
0 FLOCK 4BE 10
1 60503U 24149AM  24337.15765922  .00018009  00000-0  79541-3 0  9997
2 60503  97.4346  51.2084 0004995 113.8635 246.3125 15.21779627 16303
Epoch: 2024-12-02T03:47Z
Definitive object data (Epoch: 2024-12-02T03:47:01.756Z)
Latitude-0.00002°
Longitude-77.03446°
Altitude504.947 km
Speed7.611 km/s
True Right ascension03h 24m 50s
True Declination0° 00' 00"
Sunlit
Object was in full shadow at TLE epoch
Visualization TLE readout
Latitude7.78793°
Longitude-77.79015°
Altitude503.749 km
Speed7.612 km/s
Apparent Right ascension00h 32m 33s
Apparent Declination-24° 57' 50"
Sunlit
Object is in full shadow
Visualization observer readout
Local Sidereal Time07:54:20
Azimuth261.925° W
Elevation-30.909°
Doppler factor1
Orbital elements
Apogee altitude500.872 km
Perigee altitude494.003 km
Semi-major axis6,875.574 km
Eccentricity0.0004995
Inclination97.4346°
RAAN51.2084°
Arg. of periapsis113.8635°
True anomaly246.2601°
Mean anomaly246.3125°
Eccentric anomaly246.2863°
Mean motion3.80697 °/min
BSTAR0.00079541
Orbital period94.56 mins
Loading maneuver chart data...
Loading historical data...
Loading historical data...
Loading historical data...
Loading historical data...
Loading historical data...
Loading historical data...
Loading historical data...

FLOCK 4BE 10 Visibility forecast

Observer location: undefined°, undefined

Span
Click to sort rows by Start time (UTC) header in descending order
Start Az.
Max El. time (UTC)
Max El. Az.
Max El.
End time (UTC)
End Az.
4 mins2024-12-02 18:33:49.661Z334.974° NNW2024-12-02 18:35:49.661Z274.621° WNW28.403°2024-12-02 18:37:49.661Z230.413° WSW
5 mins2024-12-03 05:10:49.661Z164.092° S2024-12-03 05:12:49.661Z7.346° NNE44.231°2024-12-03 05:15:49.661Z349.276° N
|